• In Uzbekistan
  • List of Countries
  • For 7 days
  • Water Temperature
  • Satellite Maps
  • Weather Map
  • Weather Widgets
  • user-avatar
    Login

    Hourly Weather Ali Bayramli

    Today, 23 November, Thursday

    Time Temperature Precipitation Wind Pressure Humidity
    00:00 +9°C° 0.1 mm 7 mps 757 mmHg 69%
    01:00 +8°C° 0.2 mm 7 mps 757 mmHg 70%
    02:00 +8°C° 0.2 mm 6 mps 758 mmHg 71%
    03:00 +8°C° 0.2 mm 6 mps 758 mmHg 71%
    04:00 +8°C° 0.2 mm 6 mps 758 mmHg 72%
    05:00 +7°C° 0.2 mm 5 mps 758 mmHg 73%
    06:00 +7°C° 0.2 mm 5 mps 758 mmHg 73%
    07:00 +7°C° 0.2 mm 4 mps 758 mmHg 73%
    08:00 +8°C° 0.2 mm 3 mps 759 mmHg 73%
    09:00 +8°C° 0.2 mm 3 mps 759 mmHg 73%
    10:00 +9°C° 0.1 mm 2 mps 759 mmHg 70%
    11:00 +9°C° 0.1 mm 2 mps 759 mmHg 67%
    12:00 +11°C° 0.1 mm 1 mps 758 mmHg 64%
    13:00 +10°C° 0 mm 2 mps 758 mmHg 60%
    14:00 +12°C° 0 mm 2 mps 758 mmHg 57%
    15:00 +12°C° 0 mm 2 mps 758 mmHg 53%
    16:00 +12°C° 0 mm 2 mps 758 mmHg 53%
    17:00 +10°C° 0 mm 3 mps 758 mmHg 53%
    18:00 +10°C° 0 mm 3 mps 759 mmHg 52%
    19:00 +10°C° 0 mm 3 mps 759 mmHg 51%
    20:00 +8°C° 0 mm 4 mps 759 mmHg 49%
    21:00 +8°C° 0 mm 4 mps 760 mmHg 48%
    22:00 +8°C° 0 mm 4 mps 760 mmHg 46%
    23:00 +7°C° 0 mm 5 mps 760 mmHg 44%

    Tomorrow, 24 November, Friday

    Time Temperature Precipitation Wind Pressure Humidity
    00:00 +7°C° 0 mm 5 mps 761 mmHg 43%
    01:00 +7°C° 0 mm 5 mps 761 mmHg 44%
    02:00 +7°C° 0 mm 5 mps 761 mmHg 45%
    03:00 +7°C° 0 mm 4 mps 761 mmHg 46%
    04:00 +6°C° 0 mm 4 mps 761 mmHg 47%
    05:00 +6°C° 0 mm 4 mps 762 mmHg 47%
    06:00 +6°C° 0 mm 4 mps 762 mmHg 48%
    07:00 +6°C° 0 mm 5 mps 762 mmHg 45%
    08:00 +7°C° 0 mm 5 mps 763 mmHg 42%
    09:00 +7°C° 0 mm 5 mps 763 mmHg 39%
    10:00 +8°C° 0 mm 5 mps 763 mmHg 35%
    11:00 +8°C° 0 mm 5 mps 763 mmHg 31%
    12:00 +9°C° 0 mm 5 mps 763 mmHg 28%
    13:00 +9°C° 0 mm 5 mps 763 mmHg 26%
    14:00 +9°C° 0 mm 5 mps 763 mmHg 25%
    15:00 +9°C° 0 mm 5 mps 763 mmHg 24%
    16:00 +8°C° 0 mm 5 mps 763 mmHg 26%
    17:00 +8°C° 0 mm 4 mps 763 mmHg 29%
    18:00 +7°C° 0 mm 4 mps 764 mmHg 31%
    19:00 +6°C° 0 mm 4 mps 764 mmHg 32%
    20:00 +6°C° 0 mm 4 mps 764 mmHg 33%
    21:00 +5°C° 0 mm 4 mps 764 mmHg 34%
    22:00 +5°C° 0 mm 4 mps 764 mmHg 33%
    23:00 +5°C° 0 mm 4 mps 764 mmHg 32%

    Day after tomorrow, 25 November, Saturday

    Time Temperature Precipitation Wind Pressure Humidity
    00:00 +4°C° 0 mm 4 mps 764 mmHg 32%
    01:00 +4°C° 0 mm 4 mps 764 mmHg 32%
    02:00 +4°C° 0 mm 4 mps 764 mmHg 31%
    03:00 +4°C° 0 mm 4 mps 765 mmHg 31%
    04:00 +3°C° 0 mm 5 mps 765 mmHg 33%
    05:00 +2°C° 0 mm 5 mps 765 mmHg 35%
    06:00 +2°C° 0 mm 5 mps 765 mmHg 36%
    07:00 +3°C° 0 mm 5 mps 766 mmHg 35%
    08:00 +4°C° 0 mm 6 mps 766 mmHg 34%
    09:00 +5°C° 0 mm 6 mps 767 mmHg 33%
    10:00 +7°C° 0 mm 6 mps 767 mmHg 32%
    11:00 +8°C° 0 mm 6 mps 767 mmHg 31%
    12:00 +9°C° 0 mm 6 mps 767 mmHg 30%
    13:00 +9°C° 0 mm 6 mps 768 mmHg 30%
    14:00 +9°C° 0 mm 5 mps 768 mmHg 29%
    15:00 +10°C° 0 mm 5 mps 769 mmHg 29%
    16:00 +10°C° 0 mm 4 mps 769 mmHg 34%
    17:00 +7°C° 0 mm 4 mps 770 mmHg 39%
    18:00 +7°C° 0 mm 3 mps 770 mmHg 44%
    19:00 +7°C° 0 mm 3 mps 771 mmHg 47%
    20:00 +7°C° 0 mm 3 mps 771 mmHg 50%
    21:00 +5°C° 0 mm 3 mps 771 mmHg 52%
    22:00 +6°C° 0 mm 2 mps 772 mmHg 54%
    23:00 +6°C° 0 mm 2 mps 772 mmHg 56%

    26 November, Sunday

    Time Temperature Precipitation Wind Pressure Humidity
    00:00 +5°C° 0 mm 2 mps 772 mmHg 58%
    01:00 +5°C° 0 mm 2 mps 772 mmHg 61%
    02:00 +5°C° 0 mm 2 mps 772 mmHg 63%
    03:00 +5°C° 0 mm 2 mps 772 mmHg 66%
    04:00 +5°C° 0 mm 2 mps 772 mmHg 68%
    05:00 +4°C° 0 mm 2 mps 772 mmHg 70%
    06:00 +4°C° 0 mm 2 mps 772 mmHg 71%
    07:00 +5°C° 0 mm 2 mps 772 mmHg 67%
    08:00 +6°C° 0 mm 2 mps 772 mmHg 63%
    09:00 +7°C° 0 mm 3 mps 773 mmHg 59%
    10:00 +8°C° 0 mm 3 mps 772 mmHg 56%
    11:00 +8°C° 0 mm 3 mps 772 mmHg 53%
    12:00 +9°C° 0 mm 3 mps 771 mmHg 50%
    13:00 +9°C° 0 mm 2 mps 771 mmHg 50%
    14:00 +9°C° 0 mm 2 mps 771 mmHg 50%
    15:00 +10°C° 0 mm 1 mps 770 mmHg 49%
    16:00 +10°C° 0 mm 1 mps 770 mmHg 51%
    17:00 +9°C° 0 mm 1 mps 770 mmHg 53%
    18:00 +9°C° 0 mm 1 mps 771 mmHg 55%
    19:00 +8°C° 0 mm 2 mps 771 mmHg 55%
    20:00 +7°C° 0 mm 2 mps 771 mmHg 54%
    21:00 +7°C° 0 mm 2 mps 771 mmHg 54%
    22:00 +7°C° 0 mm 2 mps 770 mmHg 55%
    23:00 +7°C° 0 mm 3 mps 770 mmHg 56%

    27 November, Monday

    Time Temperature Precipitation Wind Pressure Humidity
    00:00 +5°C° 0 mm 3 mps 769 mmHg 58%
    01:00 +5°C° 0 mm 3 mps 769 mmHg 58%
    02:00 +5°C° 0 mm 3 mps 769 mmHg 58%
    03:00 +4°C° 0 mm 3 mps 768 mmHg 58%
    04:00 +4°C° 0 mm 3 mps 768 mmHg 57%
    05:00 +4°C° 0 mm 3 mps 768 mmHg 56%
    06:00 +3°C° 0 mm 3 mps 768 mmHg 55%
    07:00 +4°C° 0 mm 3 mps 768 mmHg 52%
    08:00 +5°C° 0 mm 4 mps 768 mmHg 48%
    09:00 +5°C° 0 mm 4 mps 768 mmHg 44%
    10:00 +7°C° 0 mm 3 mps 767 mmHg 40%
    11:00 +8°C° 0 mm 3 mps 767 mmHg 36%
    12:00 +10°C° 0 mm 3 mps 766 mmHg 32%
    13:00 +10°C° 0 mm 3 mps 766 mmHg 31%
    14:00 +10°C° 0 mm 2 mps 765 mmHg 31%
    15:00 +10°C° 0 mm 2 mps 765 mmHg 30%
    16:00 +10°C° 0 mm 2 mps 765 mmHg 33%
    17:00 +10°C° 0 mm 1 mps 765 mmHg 37%
    18:00 +9°C° 0 mm 1 mps 765 mmHg 40%
    19:00 +8°C° 0 mm 1 mps 765 mmHg 41%
    20:00 +8°C° 0 mm 1 mps 765 mmHg 42%
    21:00 +8°C° 0 mm 1 mps 765 mmHg 44%
    22:00 +8°C° 0 mm 1 mps 765 mmHg 43%
    23:00 +7°C° 0 mm 2 mps 764 mmHg 42%

    28 November, Tuesday

    Time Temperature Precipitation Wind Pressure Humidity
    00:00 +7°C° 0 mm 2 mps 764 mmHg 41%
    01:00 +7°C° 0 mm 2 mps 764 mmHg 43%
    02:00 +7°C° 0 mm 2 mps 764 mmHg 45%
    03:00 +7°C° 0 mm 2 mps 764 mmHg 47%
    04:00 +7°C° 0 mm 2 mps 763 mmHg 47%
    05:00 +7°C° 0 mm 3 mps 763 mmHg 48%
    06:00 +7°C° 0 mm 3 mps 763 mmHg 49%
    07:00 +7°C° 0 mm 3 mps 763 mmHg 46%
    08:00 +8°C° 0 mm 3 mps 763 mmHg 43%
    09:00 +8°C° 0 mm 3 mps 763 mmHg 40%
    10:00 +9°C° 0 mm 3 mps 763 mmHg 38%
    11:00 +10°C° 0 mm 3 mps 762 mmHg 35%
    12:00 +12°C° 0 mm 3 mps 762 mmHg 33%
    13:00 +12°C° 0 mm 3 mps 762 mmHg 31%
    14:00 +12°C° 0 mm 3 mps 761 mmHg 30%
    15:00 +13°C° 0 mm 2 mps 761 mmHg 28%
    16:00 +12°C° 0 mm 2 mps 761 mmHg 29%
    17:00 +10°C° 0 mm 2 mps 762 mmHg 30%
    18:00 +10°C° 0 mm 2 mps 762 mmHg 31%
    19:00 +9°C° 0 mm 2 mps 762 mmHg 32%
    20:00 +9°C° 0 mm 2 mps 762 mmHg 32%
    21:00 +8°C° 0 mm 2 mps 762 mmHg 33%
    22:00 +8°C° 0 mm 2 mps 762 mmHg 34%
    23:00 +8°C° 0 mm 2 mps 762 mmHg 35%
    Show more